Location: Kalberh�ni
(46.4610°N, 7.2453°E)
Time: 20:33:27
(UTC+00:00)

Cosmos 1626 - Pass Details

Date: 26 October 2021
Orbit: 487 x 492 km, 82.5° (Epoch: 03 December)

Event Time Altitude Azimuth Distance (km) Brightness Sun altitude
Exits shadow 02:59:15 17° 77° (ENE) 1,307 4.9 -32.2°
Drops below altitude 10° 03:01:17 10° 44° (NE) 1,698 5.5 -31.8°
Sets 03:03:54 0° 25° (NNE) 2,586 6.3 -31.4°
